Location: Chippewa Lake
(41.0698°N, 81.9010°W)
Time: 04:48:08
(UTC+00:00)

SL-8 Rocket - Pass Details

Date: 05 October 2021
Orbit: 958 x 990 km, 82.9° (Epoch: 17 October)

Event Time Altitude Azimuth Distance (km) Brightness Sun altitude
Rises 23:17:58 0° 159° (SSE) 3,679 6.8 -3.8°
Reaches altitude 10° 23:20:41 10° 150° (SSE) 2,738 6.1 -4.3°
Maximum altitude 23:26:15 35° 87° (E) 1,557 4.6 -5.3°
Drops below altitude 10° 23:31:51 10° 25° (NNE) 2,759 6.1 -6.4°
Sets 23:34:35 0° 17° (NNE) 3,711 6.9 -6.9°
